Weather Roundup
Issued by NWS Chicago, IL

Home | Current Version | Previous Version | Text Only | Print | Product List | Glossary On
Versions: 1 2 3 4 5 6 7 8 9 10 11 12 13 14 15 16 17 18 19 20 21 22 23 24 25 26 27 28 29 30 31 32 33 34 35 36 37 38 39 40 41 42 43 44 45 46 47 48 49 50
000
NZUS59 KLOT 270221
HRRLOT

CHICAGO AREA WEATHER ROUNDUP
NATIONAL WEATHER SERVICE CHICAGO/ROMEOVILLE IL
900 PM CDT TUE MAY 26 2015

NOTE: "FAIR" INDICATES FEW OR NO CLOUDS BELOW 12,000 FEET WITH NO
SIGNIFICANT WEATHER AND/OR OBSTRUCTIONS TO VISIBILITY.

* THESE STATIONS ARE NOT UNDER NWS QUALITY CONTROL. THEY ALSO MAY NOT
  REPORT WEATHER SUCH AS PRECIPITATION OR FOG.

ILZ005-006-012>014-019>023-270300-
NORTHEAST ILLINOIS

CITY           SKY/WX    TMP DP  RH WIND       PRES   REMARKS
OHARE          PTCLDY    68  61  78 SW7       29.82R
MIDWAY         PTCLDY    70  62  76 SW10      29.83R
AURORA         MOCLDY    69  59  70 SW9       29.84R
LANSING*       PTCLDY    68  59  73 SW9       29.86R
JOLIET*        CLOUDY    71  62  72 SW5       29.85R
WAUKEGAN       CLEAR     68  58  70 SW12G22   29.79R
DUPAGE AIRPORT CLEAR     67  60  78 SW10      29.83R
WHEELING       PTCLDY    69  61  75 SW10      29.83R
KANKAKEE*      PTCLDY    68  63  84 S12       29.89R
MORRIS*        MOCLDY    66  61  83 S7        29.84R
LEWIS AIRPORT* CLOUDY    70  59  68 SW10      29.85R
NORTHERLY IS     N/A     70  59  68 SW3         N/A
$$

WIZ051-052-058>065-066-070>072-270300-
SOUTHEAST WISCONSIN

CITY           SKY/WX    TMP DP  RH WIND       PRES   REMARKS
MILWAUKEE      PTCLDY    69  56  62 SW22G31   29.75R
KENOSHA*       PTCLDY    68  59  73 SW15      29.78R
RACINE*        MOCLDY    69  57  65 W15G21    29.79R
BURLINGTON     CLEAR     63  58  83 SW12G17   29.79R
WAUKESHA       CLOUDY    66  57  72 SW12G23   29.76R
WEST BEND      PTCLDY    66  55  68 SW16G25   29.71S
$$

INZ001>003-010>013-019-020-270300-
NORTHWEST INDIANA

CITY           SKY/WX    TMP DP  RH WIND       PRES   REMARKS
GARY*          PTCLDY    72  63  73 SW8       29.85R
MICHIGAN CITY* NOT AVBL
RENSSELAER*    NOT AVBL
VALPARAISO     CLEAR     69  60  73 SW10      29.88R
$$

LMZ740>746-270300-
SOUTHERN LAKE MICHIGAN

STATION/POSITION TIME  SKY/WX   TEMP WIND        PRES    VSBY
                                AIR  DIR/SP/G
                 (UTC)          (F)  (DEG/KT/KT) (MB)    (MI)
HARRISON CRIB    0200            70  220/ 17/ 21   N/A
BURNHAM HARBOR   0200            70  190/  6/ 10   N/A
CALUMET HARBOR   0124            71  220/  6/ 12   N/A
BURNS HARBOR     0100            71  220/ 15/ 22 1010.8R
MICHIGAN CITY    0200            69  180/ 16/ 18   N/A
$$

ABBREVIATIONS USED IN REMARKS
   TC - TEMPERATURE IN CELSIUS
  WCI - WIND CHILL INDEX
   HX - HEAT INDEX
  VSB - VISIBILITY
$$


USA.gov is the U.S. government's official web portal to all federal, state and local government web resources and services.